Sv.knyaz Vladimir — UBKI2 — position and weather

sailwx.info

Track history (hours):
 
Tides and Currents Weather Stations Pressure Air Temp Water Temp Dewpoint Dewpoint Depression Visibility Wind Speed Wind Dir Waves Ship Positions

Sv.knyaz Vladimir

Last reported at 2014-Oct-07 11:32 UTC. Time now 2014-Oct-24 12:00 UTC.
Position N 44°40' E 035°14'.
Warning: this ship's position is 17 days out of date.

Length 128 m; draft 3.5 m.

Type: Cargo ship. MMSI: 273350360.

Date/timePositionNaut miles runAvg speedWind from/ knotsBaromVisibWave heightAir tempDewpointWater temp
2014-Oct-07 11:32N 44°40' E 035°14'6 5.7
2014-Oct-07 10:33N 44°38' E 035°07'6 5.8
2014-Oct-07 09:33N 44°35' E 034°60'6 5.7
2014-Oct-07 08:34N 44°33' E 034°52'5 5.0
2014-Oct-07 07:33N 44°31' E 034°46'5 5.2
2014-Oct-07 06:33N 44°27' E 034°41'6 5.8
2014-Oct-07 05:33N 44°23' E 034°35'  
2014-Sep-30 14:20N 44°04' E 036°07'54 8.7
2014-Sep-30 08:09N 44°24' E 037°18'5 9.2
2014-Sep-30 07:33N 44°26' E 037°24'10 9.5
2014-Sep-30 06:33N 44°31' E 037°36'9 8.9
2014-Sep-30 05:34N 44°36' E 037°46'7 6.9
2014-Sep-30 04:33N 44°43' E 037°48'1 0.9
2014-Sep-30 03:32N 44°44' E 037°48'0 0.0
2014-Sep-30 02:32N 44°44' E 037°48'0 0.0
2014-Sep-30 01:32N 44°44' E 037°48'0 0.0
2014-Sep-30 00:32N 44°44' E 037°48'0 0.0
2014-Sep-29 23:32N 44°44' E 037°48'0 0.0
2014-Sep-29 22:32N 44°44' E 037°48'0 0.0
2014-Sep-29 21:33N 44°44' E 037°48'0 0.0
2014-Sep-29 20:30N 44°44' E 037°48'0 0.0
2014-Sep-29 19:33N 44°44' E 037°48'0 0.0
2014-Sep-29 18:31N 44°44' E 037°48'0 0.0
2014-Sep-29 17:31N 44°44' E 037°48'0 0.0
2014-Sep-29 16:28N 44°44' E 037°48'0 0.0
2014-Sep-29 15:31N 44°44' E 037°48'0 0.0
2014-Sep-29 14:31N 44°44' E 037°48'0 0.0
2014-Sep-29 13:31N 44°44' E 037°48'0 0.0
2014-Sep-29 12:31N 44°44' E 037°48'0 0.0
2014-Sep-29 11:31N 44°44' E 037°48'0 0.0
2014-Sep-29 10:28N 44°44' E 037°48'0 0.0
2014-Sep-29 09:31N 44°44' E 037°48'0 0.0
2014-Sep-29 08:31N 44°44' E 037°48'0 0.0
2014-Sep-29 07:31N 44°44' E 037°48'0 0.0
2014-Sep-29 06:31N 44°44' E 037°48'0 0.0
2014-Sep-29 05:31N 44°44' E 037°48'0 0.0
2014-Sep-29 04:33N 44°44' E 037°48'0 0.0
2014-Sep-29 03:33N 44°44' E 037°48'0 0.0
2014-Sep-29 02:30N 44°44' E 037°48'0 0.0
2014-Sep-29 01:33N 44°44' E 037°48'0 0.0
2014-Sep-29 00:33N 44°44' E 037°48'0 0.0
2014-Sep-28 23:33N 44°44' E 037°48'0 0.0
2014-Sep-28 22:27N 44°44' E 037°48'0 0.0
2014-Sep-28 21:33N 44°44' E 037°48'0 0.0
2014-Sep-28 20:33N 44°44' E 037°48'0 0.0
2014-Sep-28 19:32N 44°44' E 037°48'0 0.0
2014-Sep-28 18:32N 44°44' E 037°48'0 0.0
2014-Sep-28 17:32N 44°44' E 037°48'0 0.0
2014-Sep-28 16:32N 44°44' E 037°48'0 0.0
2014-Sep-28 15:32N 44°44' E 037°48'0 0.0
2014-Sep-28 14:32N 44°44' E 037°48'0 0.0
2014-Sep-28 13:32N 44°44' E 037°48'0 0.0
2014-Sep-28 12:32N 44°44' E 037°48'0 0.0
2014-Sep-28 11:32N 44°44' E 037°48'0 0.0
2014-Sep-28 10:32N 44°44' E 037°48'0 0.0
2014-Sep-28 09:32N 44°44' E 037°48'0 0.0
2014-Sep-28 08:29N 44°44' E 037°48'0 0.0
2014-Sep-28 07:32N 44°44' E 037°48'0 0.0
2014-Sep-28 06:32N 44°44' E 037°48'0 0.0
2014-Sep-28 05:32N 44°44' E 037°48'0 0.0
2014-Sep-28 04:32N 44°44' E 037°48'0 0.0
2014-Sep-28 03:32N 44°44' E 037°48'0 0.0
2014-Sep-28 02:32N 44°44' E 037°48'0 0.0
2014-Sep-28 01:32N 44°44' E 037°48'0 0.0
2014-Sep-28 00:32N 44°44' E 037°48'0 0.0
2014-Sep-27 23:32N 44°44' E 037°48'0 0.0
2014-Sep-27 22:32N 44°44' E 037°48'0 0.0
2014-Sep-27 21:32N 44°44' E 037°48'0 0.0
2014-Sep-27 20:26N 44°44' E 037°48'0 0.0
2014-Sep-27 19:33N 44°44' E 037°48'0 0.0
2014-Sep-27 18:32N 44°44' E 037°48'0 0.0
2014-Sep-27 17:29N 44°44' E 037°48'0 0.0
2014-Sep-27 16:32N 44°44' E 037°48'0 0.0
2014-Sep-27 15:32N 44°44' E 037°48'0 0.0
2014-Sep-27 14:32N 44°44' E 037°48'0 0.0
2014-Sep-27 13:32N 44°44' E 037°48'0 0.0
2014-Sep-27 12:29N 44°44' E 037°48'0 0.0
2014-Sep-27 11:32N 44°44' E 037°48'  
Track history (hours):
 
Tides and Currents Weather Stations Pressure Air Temp Water Temp Dewpoint Dewpoint Depression Visibility Wind Speed Wind Dir Waves Ship Positions

Sv.knyaz Vladimir

Last reported at 2014-Oct-07 11:32 UTC. Time now 2014-Oct-24 12:00 UTC.
Position N 44°40' E 035°14'.
Warning: this ship's position is 17 days out of date.

Length 128 m; draft 3.5 m.

Type: Cargo ship. MMSI: 273350360.

Date/timePositionNaut miles runAvg speedWind from/ knotsBaromVisibWave heightAir tempDewpointWater temp
2014-Oct-07 11:32N 44°40' E 035°14'6 5.7
2014-Oct-07 10:33N 44°38' E 035°07'6 5.8
2014-Oct-07 09:33N 44°35' E 034°60'6 5.7
2014-Oct-07 08:34N 44°33' E 034°52'5 5.0
2014-Oct-07 07:33N 44°31' E 034°46'5 5.2
2014-Oct-07 06:33N 44°27' E 034°41'6 5.8
2014-Oct-07 05:33N 44°23' E 034°35'  
2014-Sep-30 14:20N 44°04' E 036°07'54 8.7
2014-Sep-30 08:09N 44°24' E 037°18'5 9.2
2014-Sep-30 07:33N 44°26' E 037°24'10 9.5
2014-Sep-30 06:33N 44°31' E 037°36'9 8.9
2014-Sep-30 05:34N 44°36' E 037°46'7 6.9
2014-Sep-30 04:33N 44°43' E 037°48'1 0.9
2014-Sep-30 03:32N 44°44' E 037°48'0 0.0
2014-Sep-30 02:32N 44°44' E 037°48'0 0.0
2014-Sep-30 01:32N 44°44' E 037°48'0 0.0
2014-Sep-30 00:32N 44°44' E 037°48'0 0.0
2014-Sep-29 23:32N 44°44' E 037°48'0 0.0
2014-Sep-29 22:32N 44°44' E 037°48'0 0.0
2014-Sep-29 21:33N 44°44' E 037°48'0 0.0
2014-Sep-29 20:30N 44°44' E 037°48'0 0.0
2014-Sep-29 19:33N 44°44' E 037°48'0 0.0
2014-Sep-29 18:31N 44°44' E 037°48'0 0.0
2014-Sep-29 17:31N 44°44' E 037°48'0 0.0
2014-Sep-29 16:28N 44°44' E 037°48'0 0.0
2014-Sep-29 15:31N 44°44' E 037°48'0 0.0
2014-Sep-29 14:31N 44°44' E 037°48'0 0.0
2014-Sep-29 13:31N 44°44' E 037°48'0 0.0
2014-Sep-29 12:31N 44°44' E 037°48'0 0.0
2014-Sep-29 11:31N 44°44' E 037°48'0 0.0
2014-Sep-29 10:28N 44°44' E 037°48'0 0.0
2014-Sep-29 09:31N 44°44' E 037°48'0 0.0
2014-Sep-29 08:31N 44°44' E 037°48'0 0.0
2014-Sep-29 07:31N 44°44' E 037°48'0 0.0
2014-Sep-29 06:31N 44°44' E 037°48'0 0.0
2014-Sep-29 05:31N 44°44' E 037°48'0 0.0
2014-Sep-29 04:33N 44°44' E 037°48'0 0.0
2014-Sep-29 03:33N 44°44' E 037°48'0 0.0
2014-Sep-29 02:30N 44°44' E 037°48'0 0.0
2014-Sep-29 01:33N 44°44' E 037°48'0 0.0
2014-Sep-29 00:33N 44°44' E 037°48'0 0.0
2014-Sep-28 23:33N 44°44' E 037°48'0 0.0
2014-Sep-28 22:27N 44°44' E 037°48'0 0.0
2014-Sep-28 21:33N 44°44' E 037°48'0 0.0
2014-Sep-28 20:33N 44°44' E 037°48'0 0.0
2014-Sep-28 19:32N 44°44' E 037°48'0 0.0
2014-Sep-28 18:32N 44°44' E 037°48'0 0.0
2014-Sep-28 17:32N 44°44' E 037°48'0 0.0
2014-Sep-28 16:32N 44°44' E 037°48'0 0.0
2014-Sep-28 15:32N 44°44' E 037°48'0 0.0
2014-Sep-28 14:32N 44°44' E 037°48'0 0.0
2014-Sep-28 13:32N 44°44' E 037°48'0 0.0
2014-Sep-28 12:32N 44°44' E 037°48'0 0.0
2014-Sep-28 11:32N 44°44' E 037°48'0 0.0
2014-Sep-28 10:32N 44°44' E 037°48'0 0.0
2014-Sep-28 09:32N 44°44' E 037°48'0 0.0
2014-Sep-28 08:29N 44°44' E 037°48'0 0.0
2014-Sep-28 07:32N 44°44' E 037°48'0 0.0
2014-Sep-28 06:32N 44°44' E 037°48'0 0.0
2014-Sep-28 05:32N 44°44' E 037°48'0 0.0
2014-Sep-28 04:32N 44°44' E 037°48'0 0.0
2014-Sep-28 03:32N 44°44' E 037°48'0 0.0
2014-Sep-28 02:32N 44°44' E 037°48'0 0.0
2014-Sep-28 01:32N 44°44' E 037°48'0 0.0
2014-Sep-28 00:32N 44°44' E 037°48'0 0.0
2014-Sep-27 23:32N 44°44' E 037°48'0 0.0
2014-Sep-27 22:32N 44°44' E 037°48'0 0.0
2014-Sep-27 21:32N 44°44' E 037°48'0 0.0
2014-Sep-27 20:26N 44°44' E 037°48'0 0.0
2014-Sep-27 19:33N 44°44' E 037°48'0 0.0
2014-Sep-27 18:32N 44°44' E 037°48'0 0.0
2014-Sep-27 17:29N 44°44' E 037°48'0 0.0
2014-Sep-27 16:32N 44°44' E 037°48'0 0.0
2014-Sep-27 15:32N 44°44' E 037°48'0 0.0
2014-Sep-27 14:32N 44°44' E 037°48'0 0.0
2014-Sep-27 13:32N 44°44' E 037°48'0 0.0
2014-Sep-27 12:29N 44°44' E 037°48'0 0.0
2014-Sep-27 11:32N 44°44' E 037°48'  

Dump ship's entire track history